MST,Max TemperatureF,Mean TemperatureF,Min TemperatureF,Max Dew PointF,MeanDew PointF,Min DewpointF,Max Humidity, Mean Humidity, Min Humidity, Max Sea Level PressureIn, Mean Sea Level PressureIn, Min Sea Level PressureIn, Max VisibilityMiles, Mean VisibilityMiles, Min VisibilityMiles, Max Wind SpeedMPH, Mean Wind SpeedMPH, Max Gust SpeedMPH,PrecipitationIn, CloudCover, Events, WindDirDegrees
2013-11-1,53,43,33,34,30,23,81,61,38,30.05,29.91,29.70,10,10,8,29,16,34,0.01,3,,301
2013-11-2,55,38,21,32,25,18,93,63,36,30.07,29.90,29.60,10,10,10,14,6,,0.00,1,,171
2013-11-3,51,38,26,37,26,21,87,61,35,29.74,29.60,29.51,10,10,10,23,7,31,0.00,2,,256
2013-11-4,35,27,19,21,14,10,74,54,38,30.13,29.95,29.76,10,10,10,25,17,32,0.00,3,,277
2013-11-5,41,26,12,21,15,5,86,69,42,30.17,30.10,30.03,10,10,9,15,5,18,0.00,1,,205
2013-11-6,39,26,14,23,15,10,93,70,42,30.25,30.12,30.02,10,10,10,14,6,17,0.00,1,,232
2013-11-7,48,32,15,27,20,10,93,62,32,30.28,30.13,29.74,10,10,7,14,6,17,0.00,2,,174
2013-11-8,51,43,35,39,33,25,93,73,50,29.94,29.69,29.58,10,10,7,31,12,38,0.02,6,,262
2013-11-9,37,27,17,30,20,14,86,69,52,30.26,30.17,29.96,10,10,10,18,11,24,0.00,4,,285
2013-11-10,32,24,17,25,15,3,93,71,43,30.46,30.27,30.11,10,9,2,18,9,24,0.00,6,,15
2013-11-11,24,15,6,10,7,1,86,69,46,30.64,30.58,30.47,10,10,10,10,5,,0.00,1,,224
2013-11-12,44,26,8,34,20,7,100,84,61,30.56,30.32,30.05,10,10,10,20,10,21,0.00,0,,195
2013-11-13,57,42,28,39,33,25,93,67,41,30.05,29.98,29.91,10,10,10,17,10,22,0.00,1,,251
2013-11-14,51,38,24,32,28,18,93,68,44,29.93,29.83,29.70,10,10,10,18,11,24,0.00,2,,273
2013-11-15,51,37,23,30,24,19,93,67,35,29.70,29.48,29.34,10,10,10,18,9,20,0.00,2,,211
2013-11-16,41,36,32,36,29,25,100,78,57,29.42,29.33,29.29,10,10,2,8,4,,0.03,7,,206
2013-11-17,35,26,17,34,25,12,100,84,64,29.98,29.75,29.42,10,10,3,14,5,20,0.01,6,,301
2013-11-18,46,29,12,28,20,9,93,74,49,29.99,29.92,29.79,10,10,10,14,3,,0.00,0,,198
2013-11-19,48,32,17,34,24,9,93,74,53,29.81,29.62,29.49,10,10,10,16,4,22,0.00,1,,211
2013-11-20,17,8,-2,10,4,-9,85,75,67,30.49,30.14,29.83,10,7,0,18,12,24,0.00,5,,334
2013-11-21,10,-5,-20,3,-7,-27,100,79,53,30.62,30.53,30.42,10,10,10,16,7,18,0.00,0,,203
2013-11-22,14,2,-9,14,-2,-15,100,78,48,30.81,30.65,30.42,10,9,1,12,5,,0.00,3,,350
2013-11-23,19,7,-5,12,2,-9,100,81,61,30.80,30.55,30.15,10,10,10,13,3,,0.00,3,,203
2013-11-24,37,24,10,28,19,7,93,76,65,30.14,30.02,29.95,10,10,10,17,10,,0.04,0,,231
2013-11-25,30,24,17,21,18,10,86,75,64,30.44,30.28,30.13,10,10,10,17,11,17,0.00,2,,303
2013-11-26,21,10,0,16,7,-9,100,80,66,30.54,30.39,30.10,10,10,10,9,4,,0.00,1,,243
2013-11-27,33,24,15,25,19,10,93,78,64,30.30,30.10,29.93,10,10,10,18,7,23,0.00,3,,305
2013-11-28,28,20,12,19,17,9,93,80,69,30.34,30.25,30.07,10,10,0,13,5,,0.00,5,,141
2013-11-29,32,20,8,25,16,5,100,89,75,30.10,30.03,29.99,10,10,2,9,4,,0.00,0,,209
2013-11-30,33,27,21,30,25,18,100,90,86,30.20,30.14,30.08,10,9,4,6,1,,0.00,5,,209